     2              OBSERVATION DATA    GPS                 RINEX VERSION / TYPE
ASHTORIN CICESE 05 - JUL - 01 12:25                         PGM / RUN BY / DATE
                                                            COMMENT
BAJA CALIFORNIA-SONORA 2001                                 COMMENT
Original Marker Name: RM01                                  COMMENT
Campaign Name: Northern Baja                                COMMENT
4-Character Station Name: RM01                              COMMENT
6-Character Antenna Code: DMRCHT                            COMMENT
Vertical Measurement Point: BCR                             COMMENT
Vertical Offset to Rinex Ref. Point: 0.0348                 COMMENT
Radial Measurement Point: ECF                               COMMENT
Radial Offset to Rinex Ref. Point: 0.1897                   COMMENT
Antenna Height from Field Measurement: 1.3887 m             COMMENT
Additional Antenna Identification Info.:                    COMMENT
Turborogue and Ashtech Choke Ring                           COMMENT
Original XYZ: -2433762.3697 -4844599.1668 3348119.0295      COMMENT
New XYZ position is based on association with SCEC monument COMMENT
E1C2W4P4+0111. Position of that monument is believed to be  COMMENT
valid to within 1 m horizontally; vertical accuracy         COMMENT
should be no worse than 3-times this value.                 COMMENT
                                                            COMMENT
Revised Rinex header created by UCSD GPS archive for        COMMENT
GSAC on 17-Jul-2003 (2003:198) 20:49:00 GMT                 COMMENT
For assistance contact dagnew@ucsd.edu                      COMMENT
or anderson@python.ucsd.edu                                 COMMENT
                                                            COMMENT
3035 RM1                                                    MARKER NAME
3035RM1                                                     MARKER NUMBER
JGG CICESE (ENSENADA)                                       OBSERVER / AGENCY
02773 ASHTECH Z-XII3 CC001D0                                REC # / TYPE / VERS
14689 DORNE-MARGOL. TYPE T                                  ANT # / TYPE
 -2433341.1418 -4844915.6856  3348414.7855                  APPROX POSITION XYZ
        1.3409        0.0000        0.0000                  ANTENNA: DELTA H/E/N
     1     1     0                                          WAVELENGTH FACT L1/2
     7    L1    L2    C1    P1    P2    D1    D2            # / TYPES OF OBSERV
    30                                                      INTERVAL
  2001     4     1     0     0   30.000000                  TIME OF FIRST OBS
  2001     4     1     0    34   30.000000                  TIME OF LAST OBS
                                                            END OF HEADER
 01  4  1  0  0 30.0000000  0  9 17 23 10  6 26 30 22 21 18          0.000000000
 -24719669.500 9 -18930923.11748  21115298.092    21115297.2344   21115304.7204
        -0.000          -0.000
 -23824609.117 9 -18184904.64149  20837761.577    20837760.8084   20837768.9024
        -0.000          -0.000
  -4107368.245 8  -3173329.84245  24701473.344    24701472.5074   24701483.1134
        -0.000          -0.000
 -25515278.032 9 -19847228.57349  20608796.848    20608796.3974   20608804.4874
        -0.000          -0.000
 -18392255.102 9 -14014265.27947  21753455.767    21753455.6164   21753464.6784
        -0.000          -0.000
  -3442151.970 9  -2664387.18945  24591294.431    24591294.4494   24591316.2544
        -0.000          -0.000
  -7305181.454 9  -5398535.36946  23560720.558    23560719.3434   23560727.9274
        -0.000          -0.000
  -8591980.488 9  -6341850.21246  24072619.028    24072618.2944   24072632.9944
        -0.000          -0.000
 -24608037.642 9 -17696128.83748  21077886.468    21077885.7644   21077893.4064
        -0.000          -0.000
 01  4  1  0  1  0.0000000  0  8 17 23 10  6 26 30 22 18            -0.000000089
 -24737740.527 9 -18945004.42248  21111859.223    21111858.3754   21111865.8804
        -0.000          -0.000
 -23850405.707 9 -18205005.83649  20832852.617    20832851.8374   20832859.9474
        -0.000          -0.000
  -4004666.262 8  -3093302.34245  24721016.878    24721016.1064   24721026.6854
        -0.000          -0.000
 -25472708.267 9 -19814057.38549  20616897.629    20616897.1894   20616905.2974
        -0.000          -0.000
 -18389148.824 9 -14011844.73147  21754046.821    21754046.6474   21754055.7184
        -0.000          -0.000
  -3344083.683 9  -2587971.30045  24609956.928    24609956.9994   24609979.0714
        -0.000          -0.000
  -7309695.582 9  -5402052.93046  23559861.396    23559860.2884   23559868.9204
        -0.000          -0.000
 -24661673.275 9 -17737922.77348  21067679.919    21067679.2194   21067686.8504
        -0.000          -0.000
 01  4  1  0  1 30.0000000  0  8 17 23 10  6 26 30 22 18             0.000000015
 -24755676.969 9 -18958980.85948  21108445.967    21108445.1674   21108452.6674
        -0.000          -0.000
 -23875773.848 9 -18224773.17449  20828025.196    20828024.4294   20828032.5374
        -0.000          -0.000
  -3901986.932 8  -3013292.54545  24740555.997    24740555.2514   24740566.0034
        -0.000          -0.000
 -25429655.615 9 -19780509.91249  20625090.315    20625089.8674   20625098.0174
        -0.000          -0.000
 -18385419.913 9 -14008939.02347  21754756.220    21754756.0864   21754765.2294
        -0.000          -0.000
  -3246118.407 9  -2511635.73045  24628599.905    24628599.9934   24628622.2454
        -0.000          -0.000
  -7313703.143 9  -5405175.75846  23559098.646    23559097.6164   23559106.4104
        -0.000          -0.000
 -24714887.713 9 -17779388.49748  21057553.502    21057552.7904   21057560.4084
        -0.000          -0.000
 01  4  1  0  2  0.0000000  0  8 17 23  6 26 30 22 21 18             0.000000012
 -24773479.139 9 -18972852.68148  21105058.365    21105057.5434   21105065.0864
        -0.000          -0.000
 -23900714.534 9 -18244207.42949  20823279.142    20823278.3644   20823286.4604
        -0.000          -0.000
 -25386120.829 9 -19746586.76048  20633374.703    20633374.2424   20633382.4594
        -0.000          -0.000
 -18381068.292 9 -14005548.07247  21755584.227    21755584.1034   21755593.2304
        -0.000          -0.000
  -3148259.387 9  -2435383.01545  24647222.675    24647222.7514   24647244.9054
        -0.000          -0.000
  -7317205.049 9  -5407904.57146  23558432.313    23558431.3374   23558440.0834
        -0.000          -0.000
  -1573089.483 9  -1205848.11942         0.000           0.0004          0.0004
        -0.000          -0.000
 -24767680.870 9 -17820525.95248  21047507.246    21047506.5344   21047514.1214
        -0.000          -0.000
 01  4  1  0  2 30.0000000  0  8 17 23  6 26 30 22 21 18             0.000000010
 -24791146.355 9 -18986619.33748  21101696.407    21101695.5704   21101703.1784
        -0.000          -0.000
 -23925227.613 9 -18263308.48349  20818614.432    20818613.6644   20818621.7314
        -0.000          -0.000
 -25342103.630 9 -19712287.69748  20641750.909    20641750.4734   20641758.7114
        -0.000          -0.000
 -18376093.218 9 -14001671.32147  21756531.000    21756530.7984   21756539.9354
        -0.000          -0.000
  -3050508.425 9  -2359214.48845  24665824.930    24665824.9534   24665847.1054
        -0.000          -0.000
  -7320201.590 9  -5410239.58646  23557862.216    23557861.1224   23557869.9404
        -0.000          -0.000
  -1653941.97119  -1268849.78245         0.000           0.0005   24010850.3714
        -0.000          -0.000
 -24820051.894 9 -17861334.46848  21037541.298    21037540.5944   21037548.1504
        -0.000          -0.000
 01  4  1  0  3  0.0000000  0  8 17 23  6 26 30 22 21 18             0.000000010
 -24808676.883 9 -19000279.47348  21098360.479    21098359.6494   21098367.2704
        -0.000          -0.000
 -23949312.236 9 -18282075.67049  20814031.239    20814030.4674   20814038.5354
        -0.000          -0.000
 -25297603.362 9 -19677612.22348  20650219.106    20650218.6514   20650226.8814
        -0.000          -0.000
 -18370492.900 9 -13997307.37747  21757596.639    21757596.4204   21757605.5614
        -0.000          -0.000
  -2952866.569 9  -2283130.97145  24684406.325    24684406.2784   24684428.4654
        -0.000          -0.000
  -7322692.520 9  -5412180.63046  23557388.260    23557387.2204   23557396.0524
        -0.000          -0.000
  -1734582.164 9  -1331686.04946  23995490.368    23995489.6194   23995503.4734
        -0.000          -0.000
 -24871998.927 9 -17901812.60448  21027656.080    21027655.3774   21027662.8614
        -0.000          -0.000
 01  4  1  0  3 30.0000000  0  8 17 23  6 26 30 22 21 18             0.000000011
 -24826071.254 9 -19013833.53348  21095050.465    21095049.6314   21095057.2194
        -0.000          -0.000
 -23972969.506 9 -18300509.85949  20809529.337    20809528.5734   20809536.6724
        -0.000          -0.000
 -25252621.054 9 -19642561.13648  20658779.009    20658778.5554   20658786.7804
        -0.000          -0.000
 -18364267.758 9 -13992456.55447  21758781.188    21758780.9694   21758790.0654
        -0.000          -0.000
  -2855337.010 9  -2207134.96745  24702966.288    24702966.1414   24702988.9754
        -0.000          -0.000
  -7324678.933 9  -5413728.53546  23557010.312    23557009.2924   23557018.1884
        -0.000          -0.000
  -1815009.025 9  -1394356.10046  23980186.823    23980184.9344   23980198.8064
        -0.000          -0.000
 -24923522.055 9 -17941960.42948  21017851.571    21017850.8254   21017858.2144
        -0.000          -0.000
 01  4  1  0  4  0.0000000  0  8 17 23  6 26 30 22 21 18             0.000000011
 -24843328.549 9 -19027280.76948  21091766.528    21091765.6944   21091773.3084
        -0.000          -0.000
 -23996199.435 9 -18318611.05449  20805108.769    20805108.0044   20805116.1194
        -0.000          -0.000
 -25207156.690 9 -19607134.42048  20667430.606    20667430.1564   20667438.4054
        -0.000          -0.000
 -18357416.821 9 -13987118.10647  21760084.862    21760084.6374   21760093.6944
        -0.000          -0.000
  -2757921.466 9  -2131227.85445  24721504.608    24721504.4174   24721527.5214
        -0.000          -0.000
  -7326160.395 9  -5414882.97846  23556728.498    23556727.3884   23556736.2744
        -0.000          -0.000
  -1895221.586 9  -1456859.15746  23964922.216    23964920.8014   23964934.9684
        -0.000          -0.000
 -24974620.080 9 -17981777.00348  21008127.909    21008127.1664   21008134.5374
        -0.000          -0.000
 01  4  1  0  4 30.0000000  0  8 17 23  6 26 30 22 21 18             0.000000012
 -24860449.089 9 -19040621.43748  21088508.606    21088507.7504   21088515.3994
        -0.000          -0.000
 -24019003.111 9 -18336380.10649  20800769.313    20800768.5584   20800776.6834
        -0.000          -0.000
 -25161211.227 9 -19571332.82648  20676173.725    20676173.2834   20676181.6104
        -0.000          -0.000
 -18349940.376 9 -13981292.25847  21761507.579    21761507.3824   21761516.3704
        -0.000          -0.000
  -2660623.081 9  -2055412.01945  24740020.669    24740020.4694   24740043.8924
        -0.000          -0.000
  -7327138.124 9  -5415644.91846  23556542.384    23556541.3364   23556550.2084
        -0.000          -0.000
  -1975219.423 9  -1519194.90946  23949698.639    23949697.5604   23949711.9864
        -0.000          -0.000
 -25025293.218 9 -18021262.49648  20998485.007    20998484.3024   20998491.6894
        -0.000          -0.000
 01  4  1  0  5  0.0000000  0  8 17 23  6 26 30 22 21 18             0.000000012
 -24877433.291 9 -19053855.87448  21085276.592    21085275.7774   21085283.4144
        -0.000          -0.000
 -24041381.478 9 -18353817.75349  20796510.812    20796510.0764   20796518.1634
        -0.000          -0.000
 -25114785.663 9 -19535157.13048  20685008.257    20685007.8074   20685016.1514
        -0.000          -0.000
 -18341838.738 9 -13974979.23847  21763049.250    21763049.0354   21763058.0054
        -0.000          -0.000
  -2563444.837 9  -1979689.75545  24758513.958    24758513.8054   24758537.2624
        -0.000          -0.000
  -7327613.851 9  -5416015.67946  23556451.717    23556450.7084   23556459.7904
        -0.000          -0.000
  -2055002.461 9  -1581363.28746  23934516.309    23934515.3104   23934529.6954
        -0.000          -0.000
 -25075541.639 9 -18060417.04848  20988923.038    20988922.3324   20988929.6894
        -0.000          -0.000
 01  4  1  0  5 30.0000000  0  8 17 23  6 26 30 22 21 18             0.000000013
 -24894280.554 9 -19066983.60148  21082070.677    21082069.8374   21082077.4704
        -0.000          -0.000
 -24063334.880 9 -18370924.25849  20792333.258    20792332.4884   20792340.5164
        -0.000          -0.000
 -25067880.381 9 -19498607.62748  20693934.059    20693933.6184   20693941.9934
        -0.000          -0.000
 -18333111.409 9 -13968178.67747  21764710.029    21764709.7954   21764718.7184
        -0.000          -0.000
  -2466389.018 9  -1904062.91445  24776983.933    24776983.6804   24777007.2394
        -0.000          -0.000
  -7327588.275 9  -5415995.83146  23556456.434    23556455.5364   23556464.7444
        -0.000          -0.000
  -2134569.317 9  -1643363.19146  23919375.074    23919374.1924   23919388.3934
        -0.000          -0.000
 -25125364.633 9 -18099240.09548  20979442.005    20979441.2954   20979448.6514
        -0.000          -0.000
 01  4  1  0  6  0.0000000  0  8 17 23  6 26 30 22 21 18             0.000000013
 -24910991.203 9 -19080004.87348  21078890.697    21078889.8984   21078897.5174
        -0.000          -0.000
 -24084864.475 9 -18387700.52149  20788236.264    20788235.5044   20788243.5044
        -0.000          -0.000
 -25020496.229 9 -19461684.98648  20702951.031    20702950.5954   20702958.9654
        -0.000          -0.000
 -18323758.755 9 -13960890.84947  21766489.826    21766489.5934   21766498.4154
        -0.000          -0.000
  -2369458.380 9  -1828533.62345  24795430.116    24795429.8804   24795453.7364
        -0.000          -0.000
  -7327062.195 9  -5415585.96746  23556556.535    23556555.6364   23556564.9374
        -0.000          -0.000
  -2213919.716 9  -1705194.44746  23904275.092    23904274.1754   23904288.3664
        -0.000          -0.000
 -25174762.319 9 -18137731.73348  20970041.890    20970041.1634   20970048.5204
        -0.000          -0.000
 01  4  1  0  6 30.0000000  0  8 17 23  6 26 30 22 21 18             0.000000014
 -24927564.674 9 -19092919.25548  21075736.907    21075736.0914   21075743.6574
        -0.000          -0.000
 -24105970.683 9 -18404146.87649  20784219.823    20784219.0754   20784227.0784
        -0.000          -0.000
 -24972633.568 9 -19424389.48248  20712059.051    20712058.6204   20712067.0264
        -0.000          -0.000
 -18313780.415 9 -13953115.47747  21768388.533    21768388.3394   21768397.1634
        -0.000          -0.000
  -2272655.137 9  -1753103.76545  24813851.983    24813851.6454   24813875.9084
        -0.000          -0.000
  -7326035.954 9  -5414786.37046  23556751.999    23556751.0404   23556760.2394
        -0.000          -0.000
  -2293052.907 9  -1766856.43546  23889216.453    23889215.5404   23889229.6464
        -0.000          -0.000
 -25223733.966 9 -18175891.39448  20960722.826    20960722.1044   20960729.4554
        -0.000          -0.000
 01  4  1  0  7  0.0000000  0  8 17 23  6 26 30 22 21 18             0.000000015
 -24944000.503 9 -19105726.39148  21072609.263    21072608.4374   21072615.9464
        -0.000          -0.000
 -24126653.979 9 -18420263.68849  20780283.894    20780283.1394   20780291.1344
        -0.000          -0.000
 -24924292.852 9 -19386721.47048  20721258.057    20721257.6224   20721266.0324
        -0.000          -0.000
 -18303176.224 9 -13944852.42347  21770406.410    21770406.2114   21770415.0174
        -0.000          -0.000
  -2175981.524 8  -1677774.88445  24832249.160    24832248.9204   24832273.4274
        -0.000          -0.000
  -7324510.265 9  -5413597.58746  23557042.464    23557041.4404   23557050.6564
        -0.000          -0.000
  -2371967.445 9  -1828348.04946  23874199.242    23874198.3774   23874212.5664
        -0.000          -0.000
 -25272279.025 9 -18213718.65148  20951484.919    20951484.2094   20951491.5614
        -0.000          -0.000
 01  4  1  0  7 30.0000000  0  7 17 23  6 26 22 21 18                0.000000014
 -24960285.841 9 -19118416.25948  21069510.293    21069509.4324   21069516.9294
        -0.000          -0.000
 -24146902.049 9 -18436041.36949  20776430.829    20776430.0674   20776438.0284
        -0.000          -0.000
 -24875462.188 9 -19348671.67748  20730550.317    20730549.8794   20730558.2514
        -0.000          -0.000
 -18291933.257 9 -13936091.61747  21772545.854    21772545.6404   21772554.4704
        -0.000          -0.000
  -7322473.878 9  -5412010.84946  23557430.161    23557429.0614   23557438.3714
        -0.000          -0.000
  -2450650.097 9  -1889658.97146  23859226.257    23859225.4024   23859239.4794
        -0.000          -0.000
 -25320384.645 9 -18251203.49248  20942330.656    20942329.9474   20942337.2884
        -0.000          -0.000
 01  4  1  0  8  0.0000000  0  7 17 23  6 26 22 21 18                0.000000020
 -24976437.355 9 -19131001.84548  21066436.670    21066435.8604   21066443.3614
        -0.000          -0.000
 -24166732.692 9 -18451493.77349  20772657.139    20772656.3594   20772664.3444
        -0.000          -0.000
 -24826159.152 9 -19310253.80348  20739932.472    20739932.0444   20739940.3654
        -0.000          -0.000
 -18280068.500 9 -13926846.28747  21774803.594    21774803.3884   21774812.2244
        -0.000          -0.000
  -7319944.366 9  -5410039.86146  23557911.617    23557910.5974   23557919.9174
        -0.000          -0.000
  -2529117.178 9  -1950801.92746  23844294.469    23844293.6094   23844307.5484
        -0.000          -0.000
 -25368067.315 9 -18288358.76048  20933256.893    20933256.1884   20933263.5264
        -0.000          -0.000
 01  4  1  0  8 30.0000000  0  7 17 23  6 26 22 21 18                0.000000022
 -24992453.986 9 -19143482.32748  21063388.735    21063387.9604   21063395.4474
        -0.000          -0.000
 -24186145.707 9 -18466620.75949  20768962.931    20768962.1574   20768970.1584
        -0.000          -0.000
 -24776383.571 9 -19271467.70948  20749404.515    20749404.0864   20749412.3764
        -0.000          -0.000
 -18267581.330 9 -13917115.97947  21777179.752    21777179.5434   21777188.4514
        -0.000          -0.000
  -7316921.639 9  -5407684.57246  23558486.860    23558485.8694   23558495.0744
        -0.000          -0.000
  -2607366.831 9  -2011775.44546  23829403.780    23829403.0584   23829416.9174
        -0.000          -0.000
 -25415326.049 9 -18325183.69148  20924263.811    20924263.1044   20924270.4264
        -0.000          -0.000
 01  4  1  0  9  0.0000000  0  7 17 23  6 26 22 21 18                0.000000023
 -25008333.756 9 -19155856.16648  21060366.951    21060366.1724   21060373.6374
        -0.000          -0.000
 -24205140.057 9 -18481421.51249  20765348.433    20765347.6594   20765355.6454
        -0.000          -0.000
 -24726134.536 9 -19232312.69748  20758966.638    20758966.2174   20758974.5204
        -0.000          -0.000
 -18254469.984 9 -13906899.29347  21779674.728    21779674.5154   21779683.3944
        -0.000          -0.000
  -7313404.694 9  -5404944.14946  23559156.216    23559155.1874   23559164.2934
        -0.000          -0.000
  -2685396.404 9  -2072577.48246  23814555.096    23814554.3774   23814568.1094
        -0.000          -0.000
 -25462158.970 9 -18361676.81348  20915351.770    20915351.0444   20915358.3514
        -0.000          -0.000
 01  4  1  0  9 30.0000000  0  7 17 23  6 26 22 21 18                0.000000024
 -25024075.521 9 -19168122.47948  21057371.393    21057370.5864   21057378.0744
        -0.000          -0.000
 -24223715.668 9 -18495895.97349  20761813.606    20761812.8264   20761820.7804
        -0.000          -0.000
 -24675411.830 9 -19192788.58948  20768618.927    20768618.5054   20768626.8294
        -0.000          -0.000
 -18240733.793 9 -13896195.71347  21782288.550    21782288.3664   21782297.2064
        -0.000          -0.000
  -7309393.941 9  -5401818.95246  23559919.603    23559918.5084   23559927.5594
        -0.000          -0.000
  -2763204.783 9  -2133207.14946  23799748.495    23799747.8184   23799761.4604
        -0.000          -0.000
 -25508565.067 9 -18397837.34448  20906520.951    20906520.2374   20906527.5324
        -0.000          -0.000
 01  4  1  0 10  0.0000000  0  7 17 23  6 26 22 21 18                0.000000024
 -25039678.492 9 -19180280.64848  21054402.221    21054401.4214   21054408.9594
        -0.000          -0.000
 -24241872.503 9 -18510044.11749  20758358.438    20758357.6584   20758365.5904
        -0.000          -0.000
 -24624215.578 9 -19152895.47748  20778361.329    20778360.9004   20778369.2674
        -0.000          -0.000
 -18226372.287 9 -13885004.87547  21785021.454    21785021.2544   21785030.0474
        -0.000          -0.000
  -7304890.169 9  -5398309.59846  23560776.787    23560775.6054   23560784.6704
        -0.000          -0.000
  -2840790.346 9  -2193663.21246  23784984.208    23784983.4594   23784997.2034
        -0.000          -0.000
 -25554543.317 9 -18433664.49148  20897771.499    20897770.8144   20897778.0904
        -0.000          -0.000
 01  4  1  0 10 30.0000000  0  7 17 23  6 26 22 21 18                0.000000025
 -25055142.095 9 -19192330.22048  21051459.575    21051458.7884   21051466.3774
        -0.000          -0.000
 -24259611.018 9 -18523866.29549  20754982.853    20754982.0654   20754990.0064
        -0.000          -0.000
 -24572546.093 9 -19112633.61748  20788193.729    20788193.2934   20788201.7334
        -0.000          -0.000
 -18211385.065 9 -13873326.45647  21787873.461    21787873.2394   21787881.9914
        -0.000          -0.000
  -7299893.663 9  -5394416.27046  23561727.482    23561726.4264   23561735.5974
        -0.000          -0.000
  -2918151.175 9  -2253944.15746  23770262.731    23770262.0204   23770275.5944
        -0.000          -0.000
 -25600093.154 9 -18469157.80849  20889103.638    20889102.9354   20889110.2104
        -0.000          -0.000
 01  4  1  0 11  0.0000000  0  7 17 23  6 26 22 21 18                0.000000024
 -25070466.430 9 -19204271.26649  21048543.490    21048542.6974   21048550.3344
        -0.000          -0.000
 -24276932.490 9 -18537363.50649  20751686.654    20751685.8674   20751693.7874
        -0.000          -0.000
 -24520404.862 9 -19072004.17048  20798115.883    20798115.4544   20798123.9754
        -0.000          -0.000
 -18195772.992 9 -13861161.15547  21790844.335    21790844.1134   21790852.8384
        -0.000          -0.000
  -7294405.482 9  -5390139.84946  23562771.878    23562770.7644   23562780.0324
        -0.000          -0.000
  -2995287.950 9  -2314050.53346  23755583.868    23755583.1524   23755596.6894
        -0.000          -0.000
 -25645214.815 9 -18504317.48149  20880517.258    20880516.5394   20880523.8014
        -0.000          -0.000
 01  4  1  0 11 30.0000000  0  7 17 23  6 26 22 21 18                0.000000024
 -25085650.227 9 -19216102.80149  21045654.089    21045653.3074   21045660.9674
        -0.000          -0.000
 -24293836.659 9 -18550535.54549  20748469.857    20748469.0844   20748476.9884
        -0.000          -0.000
 -24467791.545 9 -19031006.85848  20808127.919    20808127.5034   20808136.0494
        -0.000          -0.000
 -18179535.030 9 -13848508.15447  21793934.230    21793934.0144   21793942.7654
        -0.000          -0.000
  -7288425.705 9  -5385480.33946  23563909.687    23563908.6354   23563918.0034
        -0.000          -0.000
  -3072199.137 9  -2373981.09846  23740947.965    23740947.2654   23740960.7884
        -0.000          -0.000
 -25689907.097 9 -18539142.58049  20872012.547    20872011.8274   20872019.0674
        -0.000          -0.000
 01  4  1  0 12  0.0000000  0  7 17 23  6 26 22 21 18                0.000000025
 -25100693.710 9 -19227824.99748  21042791.424    21042790.6394   21042798.2804
        -0.000          -0.000
 -24310324.990 9 -18563383.55849  20745332.192    20745331.4264   20745339.2874
        -0.000          -0.000
 -24414707.446 9 -18989642.70448  20818229.588    20818229.1504   20818237.6484
        -0.000          -0.000
 -18162671.955 9 -13835368.04047  21797143.155    21797142.9624   21797151.5684
        -0.000          -0.000
  -7281956.479 9  -5380439.46146  23565140.796    23565139.7934   23565149.1254
        -0.000          -0.000
  -3148884.237 9  -2433735.51546  23726355.244    23726354.4774   23726367.9314
        -0.000          -0.000
 -25734170.470 9 -18573633.46249  20863589.478    20863588.7784   20863595.9414
        -0.000          -0.000
 01  4  1  0 12 30.0000000  0  7 17 23  6 26 22 21 18                0.000000024
 -25115596.405 9 -19239437.47748  21039955.537    21039954.7624   21039962.4084
        -0.000          -0.000
 -24326398.106 9 -18575908.02549  20742273.553    20742272.7934   20742280.6214
        -0.000          -0.000
 -24361153.347 9 -18947912.31148  20828420.637    20828420.1954   20828428.7034
        -0.000          -0.000
 -18145183.950 9 -13821740.97847  21800471.007    21800470.7794   21800479.3264
        -0.000          -0.000
  -7274998.774 9  -5375017.93546  23566464.818    23566463.8274   23566473.1424
        -0.000          -0.000
  -3225342.350 9  -2493313.04946  23711805.493    23711804.7594   23711818.1814
        -0.000          -0.000
 -25778004.464 9 -18607789.76049  20855248.153    20855247.4234   20855254.5694
        -0.000          -0.000
 01  4  1  0 13  0.0000000  0  7 17 23  6 26 22 21 18                0.000000024
 -25130357.695 9 -19250939.76948  21037146.560    21037145.7574   21037153.4004
        -0.000          -0.000
 -24342056.466 9 -18588109.30249  20739293.800    20739293.0364   20739300.9034
        -0.000          -0.000
 -24307129.915 9 -18905816.19948  20838700.962    20838700.5384   20838709.0774
        -0.000          -0.000
 -18127071.124 9 -13807627.03747  21803917.687    21803917.4624   21803926.0864
        -0.000          -0.000
  -7267553.052 9  -5369216.15246  23567881.739    23567880.7864   23567890.1274
        -0.000          -0.000
  -3301572.385 9  -2552712.88346  23697299.201    23697298.4824   23697311.8664
        -0.000          -0.000
 -25821409.023 9 -18641611.43449  20846988.474    20846987.7514   20846994.8934
        -0.000          -0.000
 01  4  1  0 13 30.0000000  0  7 17 23  6 26 22 21 18                0.000000024
 -25144977.743 9 -19262332.00248  21034364.505    21034363.7134   21034371.2674
        -0.000          -0.000
 -24357301.539 9 -18599988.54349  20736392.696    20736391.9454   20736399.8164
        -0.000          -0.000
 -24252638.618 9 -18863355.52048  20849070.348    20849069.9194   20849078.5424
        -0.000          -0.000
 -18108334.315 9 -13793026.87747  21807483.096    21807482.8644   21807491.5224
        -0.000          -0.000
  -7259620.782 9  -5363035.25346  23569391.220    23569390.2604   23569399.6864
        -0.000          -0.000
  -3377574.251 9  -2611934.89346  23682836.408    23682835.6254   23682849.1054
        -0.000          -0.000
 -25864384.304 9 -18675098.60949  20838810.486    20838809.7724   20838816.9284
        -0.000          -0.000
 01  4  1  0 14  0.0000000  0  7 17 23  6 26 22 21 18                0.000000024
 -25159455.900 9 -19273613.67048  21031609.425    21031608.6004   21031616.1024
        -0.000          -0.000
 -24372133.650 9 -18611545.99249  20733570.258    20733569.4794   20733577.2944
        -0.000          -0.000
 -24197679.771 9 -18820530.51748  20859528.741    20859528.3094   20859536.9244
        -0.000          -0.000
 -18088973.440 9 -13777940.42947  21811167.309    21811167.0834   21811175.7174
        -0.000          -0.000
  -7251202.786 9  -5356475.84046  23570993.187    23570992.2024   23571001.6964
        -0.000          -0.000
  -3453347.004 9  -2670978.38246  23668417.087    23668416.3574   23668429.9054
        -0.000          -0.000
 -25906929.965 9 -18708251.01249  20830714.263    20830713.5474   20830720.6834
        -0.000          -0.000
 01  4  1  0 14 30.0000000  0  7 17 23  6 26 22 21 18                0.000000024
 -25173791.852 9 -19284784.54148  21028881.410    21028880.5794   21028888.0464
        -0.000          -0.000
 -24386553.477 9 -18622782.18549  20730826.214    20730825.4284   20730833.2484
        -0.000          -0.000
 -24142254.164 9 -18777341.80748  20870076.020    20870075.5774   20870084.1584
        -0.000          -0.000
 -18068988.676 9 -13762367.82747  21814970.213    21814970.0014   21814978.5654
        -0.000          -0.000
  -7242300.623 9  -5349539.16046  23572687.246    23572686.2894   23572695.7964
        -0.000          -0.000
  -3528889.581 9  -2729842.51146  23654041.624    23654040.8984   23654054.3604
        -0.000          -0.000
 -25949045.764 9 -18741068.47049  20822699.908    20822699.1854   20822706.2684
        -0.000          -0.000
 01  4  1  0 15  0.0000000  0  7 17 23  6 26 22 21 18                0.000000024
 -25187985.043 9 -19295844.17048  21026180.540    21026179.6994   21026187.1424
        -0.000          -0.000
 -24400562.010 9 -18633697.88549  20728160.471    20728159.7044   20728167.4824
        -0.000          -0.000
 -24086362.736 9 -18733790.12648  20880711.826    20880711.3944   20880719.9614
        -0.000          -0.000
 -18048380.587 9 -13746309.51847  21818891.775    21818891.5564   21818900.1424
        -0.000          -0.000
  -7232915.272 9  -5342225.99146  23574473.190    23574472.2034   23574481.7694
        -0.000          -0.000
  -3604201.727 9  -2788527.09546  23639710.157    23639709.3304   23639722.7484
        -0.000          -0.000
 -25990731.236 9 -18773550.59649  20814767.372    20814766.6274   20814773.7384
        -0.000          -0.000
 01  4  1  0 15 30.0000000  0  7 17 23  6 26 22 21 18                0.000000024
 -25202035.833 9 -19306792.83448  21023506.756    21023505.9404   21023513.3474
        -0.000          -0.000
 -24414160.576 9 -18644294.13749  20725572.728    20725571.9354   20725579.6884
        -0.000          -0.000
 -24030006.821 9 -18689876.51048  20891436.060    20891435.6404   20891444.1934
        -0.000          -0.000
 -18027149.841 9 -13729766.02147  21822931.848    21822931.6294   21822940.2484
        -0.000          -0.000
  -7223047.988 9  -5334537.28146  23576351.012    23576350.0324   23576359.5214
        -0.000          -0.000
  -3679283.124 9  -2847031.84146  23625422.471    23625421.6624   23625435.0064
        -0.000          -0.000
 -26031986.894 9 -18805697.80649  20806916.580    20806915.8524   20806923.0114
        -0.000          -0.000
 01  4  1  0 16  0.0000000  0  7 17 23  6 26 22 21 18                0.000000025
 -25215943.569 9 -19317630.03048  21020860.201    21020859.3424   21020866.7394
        -0.000          -0.000
 -24427349.955 9 -18654571.53649  20723062.831    20723062.0434   20723069.8094
        -0.000          -0.000
 -23973187.223 9 -18645601.58448  20902248.530    20902248.0854   20902256.7054
        -0.000          -0.000
 -18005296.920 9 -13712737.71947  21827090.306    21827090.0904   21827098.7104
        -0.000          -0.000
  -7212699.709 9  -5326473.76246  23578320.375    23578319.3694   23578328.8724
        -0.000          -0.000
  -3754132.515 9  -2905355.83946  23611178.859    23611178.0824   23611191.3454
        -0.000          -0.000
 -26072812.988 9 -18837510.29349  20799147.593    20799146.8804   20799154.0134
        -0.000          -0.000
 01  4  1  0 16 30.0000000  0  7 17 23  6 26 22 21 18                0.000000025
 -25229707.532 9 -19328355.20048  21018240.995    21018240.2054   21018247.5434
        -0.000          -0.000
 -24440130.689 9 -18664530.51449  20720630.609    20720629.8474   20720637.6894
        -0.000          -0.000
 -23915904.806 9 -18600966.01448  20913149.042    20913148.6084   20913157.2944
        -0.000          -0.000
 -17982821.922 9 -13695224.67847  21831367.046    21831366.8094   21831375.4884
        -0.000          -0.000
  -7201871.849 9  -5318036.55846  23580380.926    23580379.9924   23580389.3884
        -0.000          -0.000
  -3828749.513 9  -2963498.75046  23596979.540    23596978.8224   23596991.9744
        -0.000          -0.000
 -26113208.706 9 -18868987.42249  20791460.536    20791459.8124   20791466.8914
        -0.000          -0.000
 01  4  1  0 17  0.0000000  0  7 17 23  6 26 22 21 18                0.000000025
 -25243327.337 9 -19338968.03549  21015649.300    21015648.4594   21015655.8154
        -0.000          -0.000
 -24452503.677 9 -18674171.77149  20718276.052    20718275.2874   20718283.1574
        -0.000          -0.000
 -23858160.405 9 -18555970.46548  20924137.447    20924136.9914   20924145.7484
        -0.000          -0.000
 -17959725.358 9 -13677227.31447  21835762.089    21835761.8864   21835770.5774
        -0.000          -0.000
  -7190565.925 9  -5309226.82846  23582532.523    23582531.6734   23582540.8544
        -0.000          -0.000
  -3903133.303 9  -3021459.97346  23582824.649    23582823.9014   23582837.0744
        -0.000          -0.000
 -26153174.212 9 -18900129.32149  20783855.251    20783854.5274   20783861.6094
        -0.000          -0.000
 01  4  1  0 17 30.0000000  0  7 17 23  6 26 22 21 18                0.000000025
 -25256803.155 9 -19349468.67249  21013084.948    21013084.1054   21013091.4944
        -0.000          -0.000
 -24464470.660 9 -18683496.65349  20715998.730    20715997.9734   20716005.8684
        -0.000          -0.000
 -23799955.913 9 -18510616.39348  20935213.412    20935212.9644   20935221.7654
        -0.000          -0.000
 -17936008.622 9 -13658746.70547  21840275.243    21840275.0424   21840283.7104
        -0.000          -0.000
  -7178783.593 9  -5300045.85846  23584774.847    23584773.9014   23584783.1024
        -0.000          -0.000
  -3977284.408 9  -3079239.89246  23568714.139    23568713.3794   23568726.3484
        -0.000          -0.000
 -26192710.420 9 -18930936.69849  20776331.672    20776330.9554   20776338.0594
        -0.000          -0.000
 01  4  1  0 18  0.0000000  0  7 17 23  6 26 22 21 18                0.000000025
 -25270134.079 9 -19359856.40649  21010548.141    21010547.2914   21010554.7464
        -0.000          -0.000
 -24476031.710 9 -18692505.23049  20713798.696    20713797.9464   20713805.8254
        -0.000          -0.000
 -23741291.440 9 -18464903.88548  20946376.980    20946376.5354   20946385.3554
        -0.000          -0.000
 -17911671.573 9 -13639782.73047  21844906.483    21844906.2464   21844914.8734
        -0.000          -0.000
  -7166524.992 9  -5290493.77346  23587107.754    23587106.7864   23587115.9394
        -0.000          -0.000
  -4051200.845 9  -3136836.96346  23554648.229    23554647.4474   23554660.2314
        -0.000          -0.000
 -26231816.409 9 -18961408.84549  20768890.067    20768889.3674   20768896.4044
        -0.000          -0.000
 01  4  1  0 18 30.0000000  0  7 17 23  6 26 22 21 18                0.000000024
 -25283319.374 9 -19370130.65549  21008039.045    21008038.1884   21008045.6834
        -0.000          -0.000
 -24487187.363 9 -18701197.91349  20711675.858    20711675.1064   20711682.9484
        -0.000          -0.000
 -23682167.790 9 -18418833.58948  20957627.920    20957627.4664   20957636.2764
        -0.000          -0.000
 -17886714.478 9 -13620335.59847  21849655.599    21849655.3584   21849663.9834
        -0.000          -0.000
  -7153791.260 9  -5280571.47746  23589530.913    23589529.9684   23589539.1094
        -0.000          -0.000
  -4124881.885 9  -3194250.59546  23540627.030    23540626.2744   23540638.9964
        -0.000          -0.000
 -26270491.889 9 -18991545.52849  20761530.343    20761529.6124   20761536.6004
        -0.000          -0.000
 01  4  1  0 19  0.0000000  0  7 17 23  6 26 22 21 18                0.000000024
 -25296358.569 9 -19380291.06549  21005557.758    21005556.9254   21005564.4624
        -0.000          -0.000
 -24497938.786 9 -18709575.61349  20709629.959    20709629.1924   20709637.0164
        -0.000          -0.000
 -23622586.107 9 -18372406.37948  20968966.022    20968965.5674   20968974.3374
        -0.000          -0.000
 -17861137.927 9 -13600405.77347  21854522.588    21854522.3394   21854530.9464
        -0.000          -0.000
  -7140584.364 9  -5270280.46946  23592044.165    23592043.0794   23592052.3514
        -0.000          -0.000
  -4198326.941 9  -3251480.35746  23526650.746    23526649.9394   23526662.6624
        -0.000          -0.000
 -26308736.959 9 -19021346.82649  20754252.504    20754251.7714   20754258.7204
        -0.000          -0.000
 01  4  1  0 19 30.0000000  0  7 17 23  6 26 22 21 18                0.000000024
 -25309250.872 9 -19390337.01449  21003104.426    21003103.5944   21003111.1624
        -0.000          -0.000
 -24508286.415 9 -18717638.66549  20707660.862    20707660.1054   20707667.8934
        -0.000          -0.000
 -23562547.216 9 -18325622.91648  20980391.110    20980390.6684   20980399.4064
        -0.000          -0.000
 -17834942.067 9 -13579993.37047  21859507.490    21859507.2184   21859515.8294
        -0.000          -0.000
  -7126905.158 9  -5259621.44246  23594647.090    23594646.0074   23594655.5364
        -0.000          -0.000
  -4271535.479 9  -3308525.80846  23512719.483    23512718.6944   23512731.4134
        -0.000          -0.000
 -26346551.337 9 -19050812.51949  20747056.625    20747055.8924   20747062.8674
        -0.000          -0.000
 01  4  1  0 20  0.0000000  0  7 17 23  6 26 22 21 18                0.000000023
 -25321996.665 9 -19400268.80649  21000678.957    21000678.1234   21000685.7354
        -0.000          -0.000
 -24518232.163 9 -18725388.56349  20705768.231    20705767.4564   20705775.2574
        -0.000          -0.000
 -23502052.798 9 -18278484.49448  20991902.856    20991902.4384   20991911.1754
        -0.000          -0.000
 -17808128.517 9 -13559099.64847  21864609.937    21864609.6664   21864618.2754
        -0.000          -0.000
  -7112755.269 9  -5248595.64346  23597339.619    23597338.6124   23597348.3634
        -0.000          -0.000
  -4344507.646 9  -3365387.07846  23498833.185    23498832.4674   23498845.1674
        -0.000          -0.000
 -26383935.683 9 -19079943.12549  20739942.559    20739941.8474   20739948.7954
        -0.000          -0.000
 01  4  1  0 20 30.0000000  0  7 17 23  6 26 22 21 18                0.000000024
 -25334595.645 9 -19410086.19349  20998281.412    20998280.6134   20998288.1974
        -0.000          -0.000
 -24527777.317 9 -18732826.31549  20703951.831    20703951.0634   20703958.8724
        -0.000          -0.000
 -23441104.256 9 -18230992.22548  21003501.048    21003500.6194   21003509.4164
        -0.000          -0.000
 -17780698.262 9 -13537725.37047  21869829.711    21869829.4424   21869838.0064
        -0.000          -0.000
  -7098136.276 9  -5237204.32246  23600121.682    23600120.6364   23600130.3074
        -0.000          -0.000
  -4417242.532 9  -3422063.46146  23484992.097    23484991.3694   23485003.9724
        -0.000          -0.000
 -26420890.493 9 -19108739.02949  20732910.324    20732909.5854   20732916.5154
        -0.000          -0.000
 01  4  1  0 21  0.0000000  0  7 17 23  6 26 22 21 18                0.000000023
 -25347047.477 9 -19419788.91949  20995911.946    20995911.1134   20995918.6644
        -0.000          -0.000
 -24536922.685 9 -18739952.54349  20702211.456    20702210.6884   20702218.5194
        -0.000          -0.000
 -23379702.740 9 -18183146.97648  21015185.452    21015185.0104   21015193.8674
        -0.000          -0.000
 -17752651.891 9 -13515871.00147  21875166.689    21875166.4674   21875174.9424
        -0.000          -0.000
  -7083050.033 9  -5225448.88446  23602992.724    23602991.5894   23603001.1764
        -0.000          -0.000
  -4489740.213 9  -3478555.00146  23471195.993    23471195.2904   23471207.9514
        -0.000          -0.000
 -26457415.775 9 -19137200.23149  20725959.711    20725958.9774   20725965.9164
        -0.000          -0.000
 01  4  1  0 21 30.0000000  0  7 17 23  6 26 22 21 18                0.000000023
 -25359350.424 9 -19429375.62048  20993570.752    20993569.9144   20993577.4764
        -0.000          -0.000
 -24545668.272 9 -18746767.25349  20700547.179    20700546.4104   20700554.2264
        -0.000          -0.000
 -23317848.076 9 -18134948.62648  21026956.062    21026955.6314   21026964.4874
        -0.000          -0.000
 -17723989.075 9 -13493536.30547  21880621.033    21880620.8424   21880629.2164
        -0.000          -0.000
  -7067496.933 9  -5213329.66546  23605952.506    23605951.3304   23605960.8494
        -0.000          -0.000
  -4561998.786 9  -3534860.23146  23457445.497    23457444.7894   23457457.4504
        -0.000          -0.000
 -26493510.548 9 -19165325.97549  20719091.036    20719090.3224   20719097.2484
        -0.000          -0.000
 01  4  1  0 22  0.0000000  0  7 17 23  6 26 22 21 18                0.000000023
 -25371505.275 9 -19438846.93848  20991257.706    20991256.8854   20991264.4584
        -0.000          -0.000
 -24554016.223 9 -18753272.11949  20698958.622    20698957.8704   20698965.6354
        -0.000          -0.000
 -23255542.530 9 -18086398.93948  21038812.507    21038812.0634   21038820.9374
        -0.000          -0.000
 -17694711.767 9 -13470722.77347  21886192.342    21886192.1054   21886200.4424
        -0.000          -0.000
  -7051479.454 9  -5200848.58846  23609000.554    23608999.4004   23609008.8774
        -0.000          -0.000
  -4634018.866 9  -3590979.62746  23443740.505    23443739.7664   23443752.3274
        -0.000          -0.000
 -26529176.008 9 -19193117.19049  20712304.114    20712303.4014   20712310.3024
        -0.000          -0.000
 01  4  1  0 22 30.0000000  0  7 17 23  6 26 22 21 18                0.000000022
 -25383510.553 9 -19448201.70148  20988973.119    20988972.3074   20988979.9084
        -0.000          -0.000
 -24561966.495 9 -18759467.10949  20697445.735    20697444.9874   20697452.7234
        -0.000          -0.000
 -23192786.354 9 -18037498.10948  21050754.676    21050754.2364   21050763.1614
        -0.000          -0.000
 -17664819.572 9 -13447430.11147  21891880.508    21891880.3174   21891888.6484
        -0.000          -0.000
  -7034997.407 9  -5188005.51746  23612137.021    23612135.9084   23612145.3894
        -0.000          -0.000
  -4705798.780 9  -3646911.88446  23430081.136    23430080.3834   23430092.9464
        -0.000          -0.000
 -26564411.138 9 -19220573.08349  20705599.079    20705598.3734   20705605.2584
        -0.000          -0.000
 01  4  1  0 23  0.0000000  0  7 17 23  6 26 22 21 18                0.000000023
 -25395366.400 9 -19457440.03148  20986716.967    20986716.1994   20986723.7724
        -0.000          -0.000
 -24569520.777 9 -18765353.53749  20696008.178    20696007.4224   20696015.1324
        -0.000          -0.000
 -23129581.463 9 -17988247.63048  21062782.251    21062781.7994   21062790.7674
        -0.000          -0.000
 -17634314.276 9 -13423659.69947  21897685.467    21897685.2484   21897693.5304
        -0.000          -0.000
  -7018053.014 9  -5174802.17946  23615361.399    23615360.3174   23615369.8814
        -0.000          -0.000
  -4777338.597 9  -3702657.05446  23416467.474    23416466.7184   23416479.2784
        -0.000          -0.000
 -26599216.990 9 -19247694.47549  20698975.673    20698974.9784   20698981.8354
        -0.000          -0.000
 01  4  1  0 23 30.0000000  0  7 17 23  6 26 22 21 18                0.000000023
 -25407072.379 9 -19466561.58448  20984489.413    20984488.6414   20984496.1654
        -0.000          -0.000
 -24576680.609 9 -18770932.60049  20694645.665    20694644.9164   20694652.6284
        -0.000          -0.000
 -23065929.190 9 -17938648.53848  21074894.983    21074894.5144   21074903.4924
        -0.000          -0.000
 -17603196.709 9 -13399412.19047  21903606.884    21903606.6694   21903614.9594
        -0.000          -0.000
  -7000648.463 9  -5161240.29246  23618673.389    23618672.2534   23618681.9084
        -0.000          -0.000
  -4848638.160 9  -3758215.01146  23402899.590    23402898.8214   23402911.2524
        -0.000          -0.000
 -26633593.723 9 -19274481.49249  20692433.961    20692433.2474   20692440.0904
        -0.000          -0.000
 01  4  1  0 24  0.0000000  0  7 17 23  6 26 22 21 18                0.000000022
 -25418627.479 9 -19475565.56448  20982290.570    20982289.7834   20982297.2974
        -0.000          -0.000
 -24583446.532 9 -18776204.72349  20693358.051    20693357.3074   20693365.0604
        -0.000          -0.000
 -23001830.273 9 -17888701.42648  21087092.647    21087092.1904   21087101.1814
        -0.000          -0.000
 -17571467.353 9 -13374687.96747  21909644.702    21909644.4994   21909652.8364
        -0.000          -0.000
  -6982784.991 9  -5147320.79246  23622072.609    23622071.5804   23622081.3534
        -0.000          -0.000
  -4919696.553 9  -3813585.04446  23389377.522    23389376.7414   23389389.0554
        -0.000          -0.000
 -26667541.269 9 -19300934.07749  20685973.859    20685973.1394   20685980.0024
        -0.000          -0.000
 01  4  1  0 24 30.0000000  0  7 17 23  6 26 22 21 18                0.000000022
 -25430031.523 9 -19484451.83448  20980120.493    20980119.6854   20980127.1754
        -0.000          -0.000
 -24589819.799 9 -18781170.87749  20692145.234    20692144.4764   20692152.2634
        -0.000          -0.000
 -22937286.186 9 -17838407.43548  21099375.027    21099374.5574   21099383.5894
        -0.000          -0.000
 -17539127.528 9 -13349488.05747  21915798.709    21915798.4894   21915806.8614
        -0.000          -0.000
  -6964463.974 9  -5133044.77646  23625558.907    23625557.8674   23625567.8604
        -0.000          -0.000
  -4990513.069 9  -3868766.61246  23375901.516    23375900.7214   23375913.0024
        -0.000          -0.000
 -26701059.743 9 -19327052.32549  20679595.457    20679594.7354   20679601.5814
        -0.000          -0.000
 01  4  1  0 25  0.0000000  0  7 17 23  6 26 22 21 18                0.000000021
 -25441284.348 9 -19493220.27248  20977979.191    20977978.3684   20977985.8214
        -0.000          -0.000
 -24595801.773 9 -18785832.13749  20691006.932    20691006.1844   20691013.9164
        -0.000          -0.000
 -22872298.490 9 -17787767.77548  21111741.846    21111741.3854   21111750.4274
        -0.000          -0.000
 -17506178.273 9 -13323813.29547  21922068.673    21922068.4484   21922076.7904
        -0.000          -0.000
  -6945686.907 9  -5118413.38946  23629132.074    23629131.0234   23629141.1034
        -0.000          -0.000
  -5061087.832 9  -3923759.82046  23362471.339    23362470.6584   23362482.9474
        -0.000          -0.000
 -26734149.646 9 -19352836.62749  20673298.638    20673297.9144   20673304.7274
        -0.000          -0.000
 01  4  1  0 25 30.0000000  0  7 17 23  6 26 22 21 18                0.000000022
 -25452384.598 9 -19501869.81749  20975866.903    20975866.0804   20975873.5264
        -0.000          -0.000
 -24601392.589 9 -18790188.60049  20689943.107    20689942.3414   20689949.9984
        -0.000          -0.000
 -22806867.484 9 -17736782.67048  21124193.047    21124192.5864   21124201.6034
        -0.000          -0.000
 -17472619.788 9 -13297663.78847  21928454.554    21928454.3074   21928462.6574
        -0.000          -0.000
  -6926454.691 9  -5103427.34046  23632791.879    23632790.7994   23632800.9584
        -0.000          -0.000
  -5131419.285 9  -3978563.42246  23349087.624    23349086.9344   23349099.1774
        -0.000          -0.000
 -26766810.484 9 -19378286.58649  20667083.455    20667082.7164   20667089.5114
        -0.000          -0.000
 01  4  1  0 26  0.0000000  0  7 17 23  6 26 22 21 18                0.000000022
 -25463333.073 9 -19510401.09849  20973783.502    20973782.6724   20973790.1094
        -0.000          -0.000
 -24606594.455 9 -18794241.98249  20688953.209    20688952.4364   20688960.0994
        -0.000          -0.000
 -22740995.871 9 -17685454.23648  21136728.055    21136727.5784   21136736.6234
        -0.000          -0.000
 -17438454.293 9 -13271041.29647  21934955.967    21934955.7564   21934964.1974
        -0.000          -0.000
  -6906770.577 9  -5088089.15446  23636537.719    23636536.6164   23636546.8694
        -0.000          -0.000
  -5201508.084 9  -4033177.93946  23335750.173    23335749.4074   23335761.5654
        -0.000          -0.000
 -26799043.867 9 -19403403.46249  20660949.614    20660948.8834   20660955.6504
        -0.000          -0.000
 01  4  1  0 26 30.0000000  0  7 17 23  6 26 22 21 18                0.000000021
 -25474128.406 9 -19518813.05149  20971729.251    20971728.4144   20971735.8324
        -0.000          -0.000
 -24611407.881 9 -18797992.68349  20688037.243    20688036.4704   20688044.0914
        -0.000          -0.000
 -22674684.256 9 -17633782.94048  21149346.818    21149346.3724   21149355.3904
        -0.000          -0.000
 -17403682.018 9 -13243945.97947  21941572.847    21941572.6554   21941581.1754
        -0.000          -0.000
  -6886635.404 9  -5072399.50246  23640369.362    23640368.2144   23640378.6444
        -0.000          -0.000
  -5271353.640 9  -4087602.90546  23322458.774    23322458.0484   23322470.1774
        -0.000          -0.000
 -26830849.232 9 -19428186.81949  20654897.216    20654896.4734   20654903.2424
        -0.000          -0.000
 01  4  1  0 27  0.0000000  0  7 17 23  6 26 22 21 18                0.000000021
 -25484770.106 9 -19527105.28049  20969704.241    20969703.3864   20969710.8004
        -0.000          -0.000
 -24615833.825 9 -18801441.45249  20687195.012    20687194.2134   20687201.8444
        -0.000          -0.000
 -22607934.106 9 -17581769.92648  21162049.028    21162048.5584   21162057.6014
        -0.000          -0.000
 -17368304.119 9 -13216378.75747  21948304.949    21948304.7754   21948313.3424
        -0.000          -0.000
  -6866050.134 9  -5056359.12846  23644286.671    23644285.5214   23644295.9654
        -0.000          -0.000
  -5340955.255 9  -4141837.79946  23309214.021    23309213.2384   23309225.2754
        -0.000          -0.000
 -26862226.684 9 -19452636.74149  20648926.213    20648925.4964   20648932.2884
        -0.000          -0.000
 01  4  1  0 27 30.0000000  0  7 17 23  6 26 22 21 18                0.000000022
 -25495257.824 9 -19535277.53649  20967708.474    20967707.6184   20967715.0764
        -0.000          -0.000
 -24619873.804 9 -18804589.46649  20686426.166    20686425.3764   20686433.0364
        -0.000          -0.000
 -22540746.850 9 -17529416.30648  21174834.380    21174833.9174   21174843.0334
        -0.000          -0.000
 -17332321.769 9 -13188340.53247  21955152.155    21955151.9754   21955160.5284
        -0.000          -0.000
  -6845016.660 9  -5039969.48846  23648289.285    23648288.2104   23648298.6054
        -0.000          -0.000
  -5410312.785 9  -4195882.48546  23296015.604    23296014.8254   23296026.9204
        -0.000          -0.000
 -26893176.859 9 -19476753.71749  20643036.553    20643035.8344   20643042.6614
        -0.000          -0.000
 01  4  1  0 28  0.0000000  0  7 17 23  6 26 22 21 18                0.000000021
 -25505591.168 9 -19543329.49749  20965742.077    20965741.2394   20965748.7354
        -0.000          -0.000
 -24623529.356 9 -18807437.91749  20685730.531    20685729.7474   20685737.3934
        -0.000          -0.000
 -22473123.749 9 -17476723.07348  21187702.651    21187702.1694   21187711.3134
        -0.000          -0.000
 -17295736.325 9 -13159832.36447  21962114.127    21962113.9554   21962122.4264
        -0.000          -0.000
  -6823537.301 9  -5023232.42546  23652376.816    23652375.7714   23652386.0304
        -0.000          -0.000
  -5479425.812 9  -4249736.65246  23282863.679    23282862.9194   23282875.0614
        -0.000          -0.000
 -26923699.948 9 -19500537.89849  20637228.194    20637227.4654   20637234.2914
        -0.000          -0.000
 01  4  1  0 28 30.0000000  0  7 17 23  6 26 22 21 18                0.000000021
 -25515769.015 9 -19551260.30249  20963805.293    20963804.4604   20963812.0034
        -0.000          -0.000
 -24626801.152 9 -18809987.34449  20685107.939    20685107.1484   20685114.7374
        -0.000          -0.000
 -22405065.729 9 -17423690.94048  21200653.695    21200653.2534   21200662.4014
        -0.000          -0.000
 -17258548.352 9 -13130854.69347  21969190.746    21969190.5364   21969199.0184
        -0.000          -0.000
  -6801613.395 9  -5006148.94046  23656548.958    23656547.9124   23656558.0984
        -0.000          -0.000
  -5548293.430 9  -4303399.60446  23269758.464    23269757.6924   23269769.8024
        -0.000          -0.000
 -26953795.862 9 -19523989.22349  20631501.114    20631500.4004   20631507.2214
        -0.000          -0.000
 01  4  1  0 29  0.0000000  0  7 17 23  6 26 22 21 18                0.000000021
 -25525791.033 9 -19559069.67749  20961898.133    20961897.3304   20961904.9094
        -0.000          -0.000
 -24629690.615 9 -18812238.84749  20684558.096    20684557.3094   20684564.8554
        -0.000          -0.000
 -22336574.470 9 -17370321.23348  21213687.239    21213686.7904   21213695.9174
        -0.000          -0.000
 -17220759.414 9 -13101408.75047  21976381.666    21976381.4284   21976389.9434
        -0.000          -0.000
  -6779246.635 9  -4988720.38446  23660805.395    23660804.2354   23660814.3714
        -0.000          -0.000
  -5616915.594 9  -4356871.26446  23256700.016    23256699.2334   23256711.2454
        -0.000          -0.000
 -26983465.425 9 -19547108.32649  20625855.191    20625854.4784   20625861.1994
        -0.000          -0.000
 01  4  1  0 29 30.0000000  0  7 17 23  6 26 22 21 18                0.000000022
 -25535656.795 9 -19566757.29749  20960020.787    20960019.9504   20960027.5234
        -0.000          -0.000
 -24632198.891 9 -18814193.33249  20684080.803    20684080.0004   20684087.5064
        -0.000          -0.000
 -22267651.661 9 -17316615.26648  21226802.900    21226802.4404   21226811.5824
        -0.000          -0.000
 -17182370.775 9 -13071495.51547  21983686.767    21983686.5904   21983694.9934
        -0.000          -0.000
  -6756438.385 9  -4970947.80646  23665145.819    23665144.6414   23665154.6724
        -0.000          -0.000
  -5685291.892 9  -4410151.36746  23243688.324    23243687.5304   23243699.4844
        -0.000          -0.000
 -27012709.098 9 -19569895.57449  20620290.315    20620289.5714   20620296.2434
        -0.000          -0.000
 01  4  1  0 30  0.0000000  0  7 17 23  6 26 22 21 18                0.000000021
 -25545365.745 9 -19574322.73449  20958173.236    20958172.3894   20958179.9704
        -0.000          -0.000
 -24634327.226 9 -18815851.76049  20683675.790    20683674.9804   20683682.4844
        -0.000          -0.000
 -22198298.619 9 -17262574.03448  21240000.448    21239999.9844   21240009.1624
        -0.000          -0.000
 -17143383.552 9 -13041115.87047  21991105.801    21991105.5654   21991113.9924
        -0.000          -0.000
  -6733190.509 9  -4952832.67946  23669569.704    23669568.5694   23669578.6304
        -0.000          -0.000
  -5753421.931 9  -4463239.58346  23230723.510    23230722.8154   23230734.5644
        -0.000          -0.000
 -27041527.093 9 -19592351.13049  20614806.402    20614805.6874   20614812.3124
        -0.000          -0.000
 01  4  1  0 30 30.0000000  0  7 17 23  6 26 22 21 18                0.000000021
 -25554917.166 9 -19581765.43149  20956355.644    20956354.8074   20956362.4124
        -0.000          -0.000
 -24636076.721 9 -18817214.99249  20683342.824    20683342.0204   20683349.5484
        -0.000          -0.000
 -22128516.693 9 -17208198.60548  21253279.592    21253279.1414   21253288.3474
        -0.000          -0.000
 -17103798.847 9 -13010270.64047  21998638.414    21998638.1904   21998646.7724
        -0.000          -0.000
  -6709505.133 9  -4934376.63046  23674076.946    23674075.7684   23674085.8744
        -0.000          -0.000
  -5821305.228 9  -4516135.52447  23217805.700    23217804.9984   23217816.6464
        -0.000          -0.000
 -27069919.598 9 -19614475.13749  20609403.438    20609402.7174   20609409.3264
        -0.000          -0.000
 01  4  1  0 31  0.0000000  0  7 17 23  6 26 22 21 18                0.000000022
 -25564310.337 9 -19589084.81249  20954568.196    20954567.3854   20954574.9454
        -0.000          -0.000
 -24637448.577 9 -18818283.95949  20683081.706    20683080.9214   20683088.4704
        -0.000          -0.000
 -22058307.345 9 -17153490.15948  21266640.070    21266639.6224   21266648.8764
        -0.000          -0.000
 -17063618.092 9 -12978960.95847  22006284.478    22006284.3174   22006292.9104
        -0.000          -0.000
  -6685384.014 9  -4915581.06646  23678667.272    23678666.0504   23678676.0874
        -0.000          -0.000
  -5888941.316 9  -4568838.84047  23204934.918    23204934.2394   23204945.8004
        -0.000          -0.000
 -27097886.764 9 -19636267.70549  20604081.436    20604080.7124   20604087.3414
        -0.000          -0.000
 01  4  1  0 31 30.0000000  0  7 17 23  6 26 22 21 18                0.000000022
 -25573545.284 9 -19596280.88949  20952810.897    20952810.0614   20952817.6084
        -0.000          -0.000
 -24638444.595 9 -18819060.06049  20682892.124    20682891.3524   20682898.9094
        -0.000          -0.000
 -21987672.560 9 -17098450.15848  21280081.513    21280081.0564   21280090.3704
        -0.000          -0.000
 -17022842.992 9 -12947188.15747  22014043.871    22014043.6644   22014052.1214
        -0.000          -0.000
  -6660829.026 9  -4896447.40446  23683339.983    23683338.8464   23683348.8784
        -0.000          -0.000
  -5956330.335 9  -4621349.62947  23192111.149    23192110.5064   23192121.9494
        -0.000          -0.000
 -27125429.817 9 -19657729.79749  20598840.112    20598839.4004   20598846.0654
        -0.000          -0.000
 01  4  1  0 32  0.0000000  0  7 17 23  6 26 22 21 18                0.000000022
 -25582620.786 9 -19603352.72549  20951083.880    20951083.0674   20951090.5974
        -0.000          -0.000
 -24639065.372 9 -18819543.76549  20682773.997    20682773.2244   20682780.7334
        -0.000          -0.000
 -21916613.130 9 -17043079.25048  21293603.718    21293603.2454   21293612.6224
        -0.000          -0.000
 -16981474.162 9 -12914952.70247  22021916.206    22021915.9754   22021924.2644
        -0.000          -0.000
  -6635841.204 9  -4876976.47546  23688094.944    23688093.8454   23688104.1074
        -0.000          -0.000
  -6023471.258 9  -4673667.09547  23179334.617    23179333.9224   23179345.3454
        -0.000          -0.000
 -27152548.619 9 -19678861.30749  20593679.553    20593678.8434   20593685.5014
        -0.000          -0.000
 01  4  1  0 32 30.0000000  0  7 17 23  6 26 22 21 18                0.000000021
 -25591536.393 9 -19610299.97049  20949387.300    20949386.5114   20949394.0774
        -0.000          -0.000
 -24639312.364 9 -18819736.20749  20682726.942    20682726.1674   20682733.7284
        -0.000          -0.000
 -21845130.845 9 -16987378.85048  21307206.388    21307205.9184   21307215.3794
        -0.000          -0.000
 -16939513.315 9 -12882255.92347  22029901.050    22029900.8274   22029909.1274
        -0.000          -0.000
  -6610422.863 9  -4857170.08646  23692931.828    23692930.6854   23692941.1534
        -0.000          -0.000
  -6090364.321 9  -4725791.42347  23166605.181    23166604.4544   23166615.9314
        -0.000          -0.000
 -27179243.810 9 -19699662.72849  20588599.569    20588598.8704   20588605.5414
        -0.000          -0.000
 01  4  1  0 33  0.0000000  0  7 17 23  6 26 22 21 18                0.000000021
 -25600291.062 9 -19617121.80349  20947721.317    20947720.5654   20947728.1194
        -0.000          -0.000
 -24639186.421 9 -18819638.04349  20682750.833    20682750.0604   20682757.7014
        -0.000          -0.000
 -21773226.545 9 -16931349.61148  21320889.380    21320888.9254   21320898.4364
        -0.000          -0.000
 -16896961.214 9 -12849098.42147  22037998.448    22037998.2114   22038006.5754
        -0.000          -0.000
  -6584575.679 9  -4837029.51446  23697850.457    23697849.3704   23697859.8804
        -0.000          -0.000
  -6157008.531 9  -4777721.83447  23153923.071    23153922.3434   23153933.8374
        -0.000          -0.000
 -27205515.124 9 -19720133.84749  20583600.281    20583599.5814   20583606.2774
        -0.000          -0.000
 01  4  1  0 33 30.0000000  0  7 17 23  6 26 22 21 18                0.000000021
 -25608884.915 9 -19623818.32249  20946086.007    20946085.2174   20946092.7754
        -0.000          -0.000
 -24638689.216 9 -18819250.58749  20682845.378    20682844.6154   20682852.2984
        -0.000          -0.000
 -21700902.466 9 -16874993.28048  21334652.248    21334651.8084   21334661.3444
        -0.000          -0.000
 -16853819.935 9 -12815481.83847  22046207.983    22046207.7284   22046216.1174
        -0.000          -0.000
  -6558301.882 9  -4816556.50846  23702850.467    23702849.3984   23702859.8434
        -0.000          -0.000
  -6223404.456 9  -4829458.78047  23141288.219    23141287.5004   23141299.0124
        -0.000          -0.000
 -27231363.617 9 -19740275.49549  20578681.471    20578680.7964   20578687.4214
        -0.000          -0.000
 01  4  1  0 34  0.0000000  0  8 17 23  6 26 22 21  3 18             0.000000005
 -25617318.273 9 -19630389.77349  20944481.193    20944480.3984   20944487.9574
        -0.000          -0.000
 -24637823.237 9 -18818575.77749  20683010.144    20683009.3814   20683017.0634
        -0.000          -0.000
 -21628161.209 9 -16818311.87248  21348494.486    21348494.0454   21348503.6624
        -0.000          -0.000
 -16810091.946 9 -12781408.08447  22054529.182    22054528.9484   22054537.3654
        -0.000          -0.000
  -6531603.916 9  -4795752.98646  23707931.163    23707930.0014   23707940.4024
        -0.000          -0.000
  -6289552.103 9  -4881002.26047  23128700.532    23128699.8554   23128711.4364
        -0.000          -0.000
  -1760625.792 8  -1345912.09545  24638824.299    24638823.7284   24638830.5674
        -0.000          -0.000
 -27256791.010 9 -19760089.01649  20573842.810    20573842.0964   20573848.6894
        -0.000          -0.000
